Lid_Strength_Index
2 2 2 2 1 1 1 1 1 1 1 1 1 2 2 2 3 3 2 2 2 2 2 3 3 3 3 2 2 3 3 3 4 4 6 7 9 9 8 9 9 9 9
2 2 2 2 1 2 2 1 1 1 1 1 1 2 2 2 3 2 2 2 2 3 3 3 3 3 3 3 3 3 3 3 4 5 8 10 9 9 9 9 9 9 10
2 2 3 2 2 2 2 1 1 1 1 1 2 2 2 2 3 2 2 1 2 3 3 3 3 3 4 4 3 3 4 6 6 7 9 10 10 10 11 11 11 11 10
3 3 3 3 2 2 2 2 2 1 2 2 2 2 2 2 2 2 2 2 3 3 4 4 3 4 4 4 5 5 7 8 9 11 13 12 11 12 12 12 13 13 13
4 4 3 2 3 2 2 2 2 2 2 2 2 2 3 3 3 3 4 3 3 4 5 4 5 6 8 6 6 7 8 10 13 13 13 13 13 13 13 13 13 13 13
5 4 3 3 3 3 3 4 3 3 3 3 3 3 3 5 8 8 5 4 5 6 7 8 8 12 10 9 9 9 8 9 12 12 13 13 12 12 13 13 13 13 13
7 6 6 6 7 6 7 7 7 6 6 6 5 5 4 6 9 9 9 5 6 6 7 9 11 11 11 10 10 10 10 9 9 11 12 12 13 12 13 13 13 13 13
9 8 9 9 8 9 9 8 9 8 7 8 8 6 5 7 10 10 11 7 7 8 8 9 10 11 11 12 12 13 14 13 11 12 11 12 11 12 12 12 12 13 13
11 11 10 9 9 10 10 9 8 9 10 9 9 9 8 11 11 11 10 10 11 11 11 10 10 12 12 11 13 14 14 14 11 11 10 10 10 10 11 13 13 14 14
11 11 10 10 9 9 8 9 11 9 10 11 13 10 12 11 12 11 10 11 13 13 13 13 13 12 12 11 13 14 15 15 14 14 13 11 11 11 10 12 13 13 13
11 12 12 10 9 8 8 10 12 11 13 13 13 14 14 13 12 11 10 12 12 14 14 15 15 12 12 11 12 14 14 14 13 14 13 13 13 13 13 13 13 13 13
12 12 12 11 11 10 11 12 12 12 12 13 14 14 14 14 13 11 11 12 12 14 15 15 15 12 12 12 13 12 12 14 14 14 13 14 13 13 13 13 13 13 13
12 12 12 13 12 12 12 13 13 12 12 13 13 13 14 14 13 12 12 12 12 14 14 14 13 12 12 12 12 12 14 14 14 14 14 14 13 13 13 14 14 13 13
12 12 13 13 13 12 12 12 11 12 12 12 12 13 14 14 14 13 13 12 13 14 14 14 13 13 13 13 14 13 14 14 14 14 14 14 14 14 14 14 14 14 15
14 14 13 13 13 13 12 12 12 11 10 12 12 12 14 14 13 12 13 14 14 14 14 14 15 15 16 16 15 15 15 14 14 14 14 14 14 14 14 14 16 17 19
15 14 13 13 14 13 13 14 12 11 11 11 11 12 13 11 12 12 12 12 13 13 14 15 16 15 16 16 16 16 15 16 15 15 14 14 15 17 16 18 18 18 19
14 14 14 14 14 14 14 13 14 13 11 11 12 12 12 12 12 12 12 12 12 13 15 15 15 15 15 15 16 16 16 15 15 15 15 16 17 18 18 18 17 18 17
15 14 14 14 14 14 14 13 14 14 14 14 12 12 12 13 13 13 12 13 14 14 14 15 15 15 15 15 16 16 16 16 16 17 17 18 17 17 18 19 18 21 19
16 15 15 14 15 14 15 14 14 14 15 15 15 14 14 13 13 13 13 14 14 15 15 14 14 15 15 16 17 18 18 18 18 19 18 18 19 19 20 20 21 22 23
19 17 16 16 15 15 16 16 16 15 16 16 16 16 15 14 15 15 14 14 14 15 15 16 16 17 18 18 19 19 21 21 20 20 21 21 22 22 22 23 25 26 27
21 21 21 18 18 17 17 17 17 17 17 16 18 18 14 14 15 15 14 14 15 17 18 19 19 19 19 20 20 20 21 21 21 21 22 23 23 23 24 24 27 28 29
22 22 22 22 21 20 19 19 19 18 19 20 20 17 16 19 19 20 20 20 19 19 19 20 21 21 21 21 21 21 21 22 22 23 24 24 25 25 26 26 27 30 31
24 24 23 23 22 22 22 21 20 20 21 21 21 22 21 22 22 22 23 23 23 23 22 22 22 23 23 23 22 21 22 22 23 24 25 26 26 26 26 26 28 32 32
25 25 25 24 24 23 23 23 23 23 23 23 23 23 23 23 23 24 24 24 24 25 24 24 24 24 25 25 24 24 23 24 24 24 25 26 26 26 27 29 28 28 29
26 26 26 26 26 25 25 24 24 23 23 23 23 24 24 24 24 24 25 25 25 25 25 25 24 24 25 25 25 25 25 24 26 26 26 26 26 26 26 27 27 27 29
27 27 27 27 27 26 26 26 25 25 24 24 24 24 24 24 24 24 25 25 25 25 25 25 25 25 25 25 25 25 25 24 26 26 26 26 26 27 27 26 27 28 28